Home   Weather   Launceston   Past weeks

Flag for Australia Past Weather in Launceston, Tasmania, Australia — Yesterday and Last 2 Weeks

Now
50 °F

Partly cloudy.


Feels Like: 48 °F
Forecast: 46 / 69 °F
Wind: 6 mph from Northwest

Location: Launceston Airport

Current Time: Dec 6, 2016 at 5:53:19 am

Latest Report: Dec 6, 2016 at 5:00 am


Visibility: N/A

Pressure: 29.80 "Hg

Humidity: 82%

Dew Point: 45 °F

Location of LauncestonLocation

Past Weather in Launceston — Graph

°F

Launceston Temperature Yesterday

Maximum temperature yesterday: 73 °F (at 3:00 pm)
Minimum temperature yesterday: 55 °F (at 11:30 pm)
Average temperature yesterday: 65 °F

High & Low Weather Summary for the Past Weeks

 TemperatureHumidityPressure
High77 °F (Nov 21, 4:00 pm)100% (Nov 21, 6:00 am)30.04 "Hg (Nov 21, 6:00 am)
Low37 °F (Nov 25, 5:00 am)23% (Dec 2, 5:00 pm)29.47 "Hg (Dec 5, 2:00 am)
Average58 °F68%29.83 "Hg
* Reported Nov 21 4:00 am — Dec 6 4:00 am, Launceston, Weather by CustomWeather, © 2016

Note: Actual official high and low records may vary slightly from our data, if they occured in-between our weather recording intervals... More about our weather records

Advertising

Launceston Weather History for the Previous 24 Hours

Scroll right to see more
 ConditionsComfort  
Time TempWeatherWind HumidityBarometerVisibility
4:00 am
Tue, Dec 6
52 °FMostly cloudy.6 mph88%29.83 "HgN/A
3:30 am52 °FOvercast.6 mph88%29.83 "HgN/A
3:00 am54 °FMostly cloudy.6 mph88%29.83 "HgN/A
2:30 am54 °FMostly cloudy.8 mph88%29.83 "HgN/A
2:00 am54 °FPassing clouds.8 mph88%29.83 "HgN/A
1:30 am52 °FPassing clouds.3 mph82%29.83 "HgN/A
1:00 am54 °FClear.5 mph82%29.83 "HgN/A
12:30 am54 °FPassing clouds.7 mph88%29.83 "HgN/A
12:00 am54 °FPassing clouds.8 mph88%29.86 "HgN/A
11:30 pm
Mon, Dec 5
55 °FOvercast.8 mph82%29.86 "HgN/A
11:00 pm57 °FPassing clouds.7 mph77%29.86 "HgN/A
10:00 pm59 °FOvercast.6 mph63%29.83 "HgN/A
9:30 pm57 °FPassing clouds.7 mph67%29.83 "HgN/A
9:00 pm57 °FClear.9 mph67%29.80 "HgN/A
8:30 pm61 °FSunny.12 mph59%29.80 "HgN/A
8:00 pm61 °FSunny.10 mph59%29.77 "HgN/A
7:00 pm66 °FSunny.14 mph46%29.74 "HgN/A
6:30 pm68 °FSunny.15 mph43%29.74 "HgN/A
6:00 pm70 °FSunny.15 mph43%29.74 "HgN/A
5:30 pm72 °FSunny.14 mph38%29.74 "HgN/A
5:00 pm72 °FSunny.14 mph38%29.71 "HgN/A
4:30 pm72 °FSunny.14 mph41%29.71 "HgN/A
4:00 pm72 °FSunny.16 mph44%29.71 "HgN/A
3:00 pm73 °FSunny.15 mph36%29.71 "HgN/A
2:30 pm72 °FSunny.14 mph38%29.68 "HgN/A
2:00 pm72 °FSunny.16 mph38%29.68 "HgN/A
1:30 pm70 °FSunny.14 mph40%29.68 "HgN/A
1:00 pm72 °FSunny.14 mph38%29.68 "HgN/A
12:30 pm68 °FSunny.17 mph49%29.68 "HgN/A
12:00 pm68 °FSunny.17 mph46%29.65 "HgN/A
11:30 am66 °FSunny.18 mph46%29.65 "HgN/A
11:00 am66 °FSunny.20 mph49%29.65 "HgN/A
10:30 am66 °FSunny.20 mph46%29.65 "HgN/A
10:00 am64 °FSunny.17 mph49%29.65 "HgN/A
9:00 am64 °FSunny.16 mph52%29.62 "HgN/A
8:30 am63 °FScattered clouds.20 mph59%29.62 "HgN/A
8:00 am63 °FSunny.16 mph68%29.59 "HgN/A
7:30 am63 °FSunny.17 mph77%29.59 "HgN/A
7:00 am61 °FScattered clouds.13 mph88%29.56 "HgN/A
6:30 am61 °FMostly cloudy.15 mph94%29.53 "HgN/A
6:00 am61 °FLow clouds.17 mph94%29.53 "HgN/A
5:00 am61 °FLow clouds.21 mph94%29.47 "HgN/A
Weather by CustomWeather, © 2016

See weather overviewHow to use our weather pages